Location: Lake Almanor
(40.2485°N, 121.1442°W)
Time: 16:11:38
(UTC-08:00)

N. Korean satellite - Pass Details

Date: 30 January 2020
Orbit: 456 x 505 km, 97.2° (Epoch: 21 February)

Event Time Altitude Azimuth Distance (km) Brightness Sun altitude
Rises 05:01:40 0° 29° (NNE) 2,562 10.6 -25.7°
Reaches altitude 10° 05:04:12 10° 48° (NE) 1,685 9.8 -25.2°
Maximum altitude 05:06:50 19° 94° (E) 1,234 9.4 -24.7°
Drops below altitude 10° 05:09:29 10° 141° (SE) 1,693 9.8 -24.2°
Sets 05:12:01 0° 160° (SSE) 2,578 10.6 -23.7°
